Powrót do katalogu

FENGYUN 1C DEB

AktywnyPO
NORAD 30344·DEBRIS·🇨🇳 China

Wystrzelony May 10, 1999 z Taiyuan Satellite Launch Center

Loading…

Następne Przeloty (najbliższe 24 godziny)

TLE

ŚwieżeSource: Space-Track

Epoka: Sep 14, 2026, 06:05 UTC

1 30344U 99025ABF 26257.25361062  .00005382  00000-0  12185-2 0  9993
2 30344  98.8159 359.0253 0005116  12.7324  17.4987 14.56576553 20820

Śledź FENGYUN 1C DEB w czasie rzeczywistym z AllMySat

Download on the App Store